SCP
0 0 0 0 0 0 0 0 0 0 0 0 0 0 0 0 0 0 0 0 0 0 0 0 0 0 0 0 0 0 0 0 0 0 0 0 0 0 0 0 0 0 0
0 0 0 0 0 0 0 0 0 0 0 0 0 0 0 0 0 0 0 0 0 0 0 0 0 0 0 0 0 0 0 0 0 0 0 0 0 0 0 0 0 0 0
0 0 0 0 0 0 0 0 0 0 0 0 0 0 0 0 0 0 0 0 0 0 0 0 0 0 0 0 0 0 0 0 0 0 0 0 0 0 0 0 0 0 0
0 0 0 0 0 0 0 0 0 0 0 0 0 0 0 0 0 0 0 0 0 0 0 0 0 0 0 0 0 0 0 0 0 0 0 0 0 0 0 0 0 0 0
0 0 0 0 0 0 0 0 0 0 0 0 0 0 0 0 0 0 0 0 0 0 0 0 0 0 0 0 0 0 0 0 0 0 0 0 0 0 0 0 0 0 0
0 0 0 0 0 0 0 0 0 0 0 0 0 0 0 0 0 0 0 0 0 0 0 0 0 0 0 0 0 0 0 0 0 0 0 0 0 0 0 0 0 0 0
0 0 0 0 0 0 0 0 0 0 0 0 0 0 0 0 0 0 0 0 0 0 0 0 0 0 0 0 0 0 0 0 0 0 0 0 0 0 0 0 0 0 0
0 0 0 0 0 0 0 0 0 0 0 0 0 0 0 0 0 0 0 0 0 0 0 0 0 0 0 0 0 0 0 0 0 0 0 0 0 0 0 0 0 0 0
0 0 0 0 0 0 0 0 0 0 0 0 0 0 0 0 0 0 0 0 0 0 0 0 0 0 0 0 0 0 0 0 0 0 0 0 0 0 0 0 0 0 0
0 0 0 0 0 0 0 0 0 0 0 0 0 0 0 0 0 0 0 0 0 0 0 0 0 0 0 0 0 0 0 0 0 0 0 0 0 0 0 0 0 0 0
1 1 0 0 0 0 0 0 0 0 0 0 0 0 0 0 0 0 0 0 0 0 0 0 0 0 0 0 0 0 0 0 0 0 0 0 0 0 0 0 0 0 0
1 1 1 0 0 0 0 0 0 0 0 0 0 0 0 0 0 0 0 0 0 0 0 0 0 0 0 0 0 0 0 0 0 0 0 0 0 0 0 0 0 0 0
1 1 1 1 0 0 0 0 0 0 0 0 0 0 0 0 0 0 0 0 0 0 0 0 0 0 0 0 0 0 0 0 0 0 0 0 0 0 0 0 0 0 0
0 0 0 0 0 0 0 0 0 0 0 0 0 0 0 0 0 0 0 0 0 0 0 0 0 0 0 0 0 0 0 0 0 0 0 0 0 0 0 0 0 0 0
0 0 0 0 0 0 0 0 0 0 0 0 0 0 0 0 0 0 0 0 0 0 0 0 0 0 0 0 0 0 0 0 0 0 0 0 0 0 0 0 0 0 0
0 0 0 0 0 0 0 0 0 0 0 0 0 0 0 0 0 0 0 0 0 0 0 0 0 0 0 0 0 0 0 0 0 0 0 0 0 0 0 0 0 0 0
0 0 0 0 0 0 0 0 0 0 0 0 0 0 0 0 0 0 0 0 0 0 0 0 0 0 0 0 0 0 0 0 0 0 0 0 0 0 0 0 0 0 0
0 0 0 0 0 0 0 0 0 0 0 0 0 0 0 0 0 0 0 0 0 0 0 0 0 0 0 0 0 0 0 0 0 0 0 0 0 0 0 0 0 0 0
0 0 0 0 0 0 0 0 0 0 0 0 0 0 0 0 0 0 0 0 0 0 0 0 0 0 0 0 0 0 0 0 0 0 0 0 0 0 0 0 0 0 0
0 0 0 0 0 0 0 0 0 0 0 0 0 0 0 0 0 0 0 0 0 0 0 0 0 0 0 0 0 0 0 0 0 0 0 0 0 0 0 0 0 0 0
0 0 0 0 0 0 0 0 0 0 0 0 0 0 0 0 0 0 0 0 0 0 0 0 0 0 0 0 0 0 0 0 0 0 0 0 0 0 0 0 0 0 0
0 0 0 0 0 0 0 0 0 0 0 0 0 0 0 0 0 0 0 0 0 0 0 0 0 0 0 0 0 0 0 0 0 0 0 0 0 0 0 0 0 0 0
0 0 0 0 0 0 0 0 0 0 0 0 0 0 0 0 0 0 0 0 0 0 0 0 0 0 0 0 0 0 0 0 0 0 0 0 0 0 0 0 0 0 0
0 0 0 0 0 0 0 0 0 0 0 0 0 0 0 0 0 0 0 0 0 0 0 0 0 0 0 0 0 0 0 0 0 0 0 0 0 0 0 0 0 0 0
0 0 0 0 0 0 0 0 0 0 0 0 0 0 0 0 0 0 0 0 0 0 0 0 0 0 0 0 0 0 0 0 0 0 0 0 0 0 0 0 0 0 0
0 0 0 0 0 0 0 0 0 0 0 0 0 0 0 0 0 0 0 0 0 0 0 0 0 0 0 0 0 0 0 0 0 0 0 0 0 0 0 0 0 0 0
Wind_Speed
7 7 6 6 6 5 6 5 5 6 5 5 5 5 5 5 4 4 5 7 7 8 7 7 6 6 5 6 6 6 6 6 6 6 6 6 7 7 7 8 8 9 10
8 7 7 7 7 6 6 6 6 6 5 5 5 6 6 5 5 5 5 7 7 7 7 7 6 5 5 4 5 4 4 5 5 5 6 6 6 7 7 7 8 9 10
10 9 8 8 7 7 7 6 7 5 5 5 6 6 5 5 5 6 5 5 6 6 7 7 6 5 4 3 3 3 4 4 5 5 6 6 7 7 8 8 9 9 10
12 10 9 8 8 7 7 7 6 6 6 6 5 5 5 4 7 6 6 6 5 6 7 7 6 5 4 2 2 2 3 3 4 5 6 7 7 8 9 9 10 11 11
14 12 9 9 10 8 8 7 7 7 7 6 5 5 5 5 6 6 7 7 6 6 6 7 7 5 3 2 1 2 3 4 4 6 7 8 9 9 10 11 12 12 13
15 13 10 12 11 9 9 9 9 7 6 6 5 5 5 5 5 6 7 7 6 8 7 7 6 5 4 2 0 2 4 5 6 7 8 9 10 11 12 13 14 14 15
15 14 11 12 12 11 12 12 10 10 7 6 5 5 5 6 7 6 7 7 8 8 8 8 6 5 4 4 1 1 3 5 6 8 9 10 11 13 14 15 16 16 17
16 13 15 13 13 12 14 14 12 9 7 8 7 5 5 6 7 7 7 7 8 8 8 8 7 6 4 3 3 1 2 4 7 9 10 11 13 14 15 16 17 18 18
16 16 16 15 13 13 13 15 15 14 10 9 9 7 6 8 5 6 8 7 8 7 7 7 8 6 5 4 3 4 1 4 7 10 12 13 14 16 17 18 19 19 20
16 16 16 16 14 13 14 14 15 13 12 9 8 7 5 2 4 5 5 6 7 8 8 6 7 6 6 4 3 2 1 4 8 11 13 14 16 17 18 19 20 20 20
14 15 15 14 14 12 14 14 14 14 12 11 8 6 6 3 4 4 4 5 5 5 5 6 5 5 5 5 4 4 3 5 9 12 14 16 17 19 19 20 20 21 21
10 14 14 13 13 12 13 13 13 14 12 11 8 7 6 5 6 5 4 3 4 3 4 3 4 4 4 5 5 3 4 7 10 13 16 18 19 20 20 21 21 21 22
9 11 11 12 11 11 10 10 10 11 11 10 9 6 5 4 3 3 3 3 2 2 2 3 3 3 4 4 4 5 7 9 12 15 17 19 19 20 20 21 22 22 22
9 9 10 10 9 9 8 8 7 8 7 8 7 6 4 3 3 2 3 4 3 1 2 4 2 3 4 4 4 5 7 10 13 16 18 19 20 20 21 21 22 22 23
6 7 8 8 8 7 8 7 6 7 6 6 6 6 5 4 4 3 3 3 4 4 4 3 2 3 3 3 4 6 8 11 15 18 19 19 19 20 21 21 22 22 23
5 6 6 7 7 7 7 7 7 7 8 7 6 8 7 5 5 4 4 3 2 2 2 1 2 2 3 4 7 8 9 14 17 17 18 18 19 20 21 21 22 22 22
4 5 6 6 7 7 8 8 8 9 10 9 8 9 8 7 6 5 4 3 3 2 2 1 2 3 5 7 7 7 8 9 10 15 17 19 20 20 21 21 21 22 22
3 4 5 6 7 7 8 9 10 10 10 10 9 9 9 7 7 5 4 3 2 2 2 3 3 4 7 7 8 9 8 8 9 14 18 19 20 20 21 21 21 22 22
5 5 7 7 8 8 8 9 10 10 9 9 9 9 8 8 6 4 4 3 2 2 3 4 5 5 6 6 8 8 9 9 9 11 15 17 18 19 20 21 22 23 23
8 8 8 8 8 8 9 9 10 10 10 9 8 8 7 6 6 5 3 3 3 3 4 4 5 6 6 7 7 7 8 8 9 9 12 13 15 18 20 22 22 22 22
9 9 10 10 9 8 8 10 10 10 10 9 8 7 6 6 5 3 2 2 3 3 4 4 5 6 6 6 6 6 8 9 10 9 8 8 9 10 12 16 18 20 21
10 10 10 10 10 8 14 15 11 9 9 8 7 6 5 4 3 2 3 4 5 5 5 5 6 7 8 8 7 7 8 9 9 6 9 11 11 12 11 11 16 21 23
10 10 10 10 11 13 16 16 14 9 8 7 6 5 3 2 1 2 3 5 6 7 8 7 9 9 9 8 9 10 10 10 12 11 11 13 11 12 11 12 20 23 24
9 9 10 10 10 12 15 15 13 8 7 5 4 3 2 2 1 3 4 5 6 6 7 7 8 9 9 9 9 10 11 12 13 11 11 12 11 11 11 11 18 23 24
9 9 9 9 9 11 13 13 9 5 5 4 3 1 0 1 2 6 5 6 7 7 7 10 12 13 16 16 13 9 9 9 10 10 8 8 9 11 11 12 13 18 20
8 8 8 7 8 8 10 10 7 3 3 2 1 1 1 3 4 6 6 6 7 7 7 8 9 10 10 11 11 9 7 8 8 7 6 5 8 9 9 8 8 10 13
Wind_Direction
191 187 192 189 194 190 187 194 196 185 189 185 187 183 182 180 171 163 133 127 132 136 135 129 121 112 99 89 82 69 59 51 40 30 23 20 15 9 6 5 2 358 353
197 192 195 195 197 197 196 197 197 191 193 193 188 187 188 180 183 180 158 139 133 144 149 144 134 122 107 94 84 71 54 41 28 15 6 1 357 352 348 347 347 343 340
202 200 201 198 199 198 197 200 195 199 194 190 194 195 193 192 186 185 183 171 155 146 156 154 144 134 119 98 78 64 49 27 10 357 348 342 337 333 329 330 329 327 326
207 206 206 205 200 196 197 197 197 197 193 197 195 190 194 193 201 193 189 187 179 169 161 158 154 146 132 106 66 36 26 9 351 340 333 327 323 319 317 316 314 314 315
211 210 211 208 200 199 201 199 203 203 200 200 196 194 198 197 199 201 202 194 189 189 176 152 149 144 144 124 43 3 354 343 329 323 320 317 313 311 309 307 307 307 306
213 214 214 212 204 202 202 201 200 203 206 193 186 195 206 205 208 205 206 198 193 194 195 180 174 156 152 149 52 344 336 328 320 314 313 311 309 307 305 304 304 303 303
215 215 215 213 208 208 207 203 198 198 199 183 180 195 207 217 218 209 210 204 198 198 200 198 199 192 174 167 176 318 322 320 315 311 308 306 305 303 302 302 301 301 300
218 216 216 215 211 212 211 206 198 198 191 189 194 194 209 207 216 214 210 213 206 195 203 204 202 202 204 202 144 198 313 318 315 310 308 306 305 304 302 301 299 299 298
220 217 219 218 214 212 213 208 202 201 197 197 206 204 209 219 180 190 211 211 208 202 204 201 204 202 205 207 196 181 254 314 311 308 307 306 305 303 301 299 298 297 297
224 221 220 220 217 214 216 212 207 208 204 197 204 227 247 274 191 179 192 210 213 214 209 199 203 202 205 205 193 191 239 300 304 306 307 306 304 302 300 298 298 298 297
226 224 222 220 220 217 218 214 208 210 209 205 193 191 207 228 243 215 189 181 201 214 214 209 204 203 200 205 202 192 250 292 302 305 305 304 302 301 300 299 298 298 297
229 225 223 221 221 218 218 216 210 210 211 210 198 190 183 186 201 207 203 175 185 177 201 215 213 208 201 204 205 199 256 287 300 303 303 302 301 301 300 299 298 297 295
233 227 222 223 222 219 216 211 207 207 206 204 200 197 197 189 159 178 181 155 155 136 190 212 215 209 201 206 203 215 258 283 295 299 299 299 300 301 300 298 295 294 293
241 232 223 221 218 211 204 198 194 194 190 192 190 177 159 147 135 140 149 142 139 159 210 208 190 206 210 218 226 246 271 280 289 293 295 296 297 297 295 293 292 292 291
243 230 217 210 204 195 188 178 178 175 164 166 155 142 132 120 108 95 100 126 147 179 208 189 196 198 216 237 247 266 278 282 287 289 291 293 293 293 291 290 289 289 288
231 215 207 196 187 180 169 161 154 151 142 138 135 131 125 121 108 100 100 87 84 139 193 166 211 214 232 256 266 275 281 286 282 284 287 290 290 290 289 288 287 286 286
215 202 191 176 168 160 154 149 144 143 138 132 132 131 127 125 118 110 107 109 114 147 207 237 232 250 265 270 276 278 281 282 281 283 287 289 290 289 288 287 286 286 285
172 164 152 142 139 141 142 140 138 137 136 135 134 130 129 126 121 120 122 133 151 183 214 248 253 252 261 274 281 284 284 281 281 285 288 289 289 288 288 287 286 285 285
103 110 116 120 123 127 128 127 128 128 128 128 131 130 129 129 126 128 136 151 174 200 223 248 265 266 268 272 281 282 282 282 282 284 287 288 287 288 288 287 287 287 287
90 95 97 100 105 110 113 116 116 114 113 111 111 114 119 127 133 143 157 176 192 220 235 250 263 269 270 276 280 288 294 294 293 293 287 285 286 288 286 285 285 285 285
86 92 95 95 96 97 104 108 108 110 109 106 103 105 111 120 132 153 180 196 216 236 248 257 267 274 278 287 292 299 296 300 297 290 289 291 292 288 288 285 283 282 282
86 89 91 94 93 95 107 107 107 106 109 111 111 109 113 122 142 189 230 242 245 253 262 269 276 279 285 291 297 296 297 299 300 297 301 296 294 288 286 284 285 287 286
87 89 91 94 96 103 108 107 105 104 104 106 111 117 125 136 175 236 242 252 256 263 268 276 276 279 289 296 297 293 289 289 285 290 295 290 289 286 286 285 288 287 287
86 88 89 92 95 102 105 105 104 99 100 103 104 110 131 170 213 252 261 266 271 269 270 270 273 281 284 287 284 281 283 284 282 280 279 283 288 288 291 289 288 287 286
88 88 88 91 96 102 104 105 102 101 103 103 104 119 195 240 254 272 278 281 285 284 273 272 278 281 284 285 286 286 282 283 287 289 286 278 288 297 293 285 283 284 284
92 92 87 88 97 103 106 107 105 101 108 108 126 170 239 294 297 295 292 287 289 298 301 293 286 283 282 281 277 266 268 273 281 288 283 282 292 306 297 279 283 288 288